Location: Casper
(42.8670°N, 106.3130°W)
Time: 18:13:34
(UTC-06:00)

Daily predictions for brighter satellites

Satellite Brightness Start Highest point End
(mag) Time Altitude Azimuth Time Altitude Azimuth Time Altitude Azimuth
SL-14 R/B 3.1 18:40:40 10° N 18:44:31 74° E 18:48:21 10° SSE
MTI 3.8 18:44:16 10° NNE 18:47:28 61° ESE 18:50:38 10° S
Cosmos 1242 Rocket 3.1 18:48:11 10° SSW 18:51:46 63° WNW 18:55:24 10° N
ISS -2.5 18:51:20 10° WNW 18:54:26 41° SW 18:57:33 10° SSE
SMAP 3.9 18:50:04 10° S 18:54:39 58° W 18:59:15 10° NNW
Meteor 2-21 Rocket 4.4 18:50:14 10° S 18:56:17 72° E 19:02:20 10° NNE
Cosmos 2221 4.0 18:55:17 10° ESE 18:57:57 16° E 19:00:37 10° NE
Cosmos 2366 rocket 4.0 18:52:40 10° S 18:58:46 58° E 19:04:49 10° NNE
Cosmos 1500 Rocket 4.1 18:56:21 10° N 19:00:22 35° ENE 19:04:21 10° SE
Cosmos 1315 Rocket 3.9 19:01:40 10° NNE 19:05:02 24° ENE 19:08:24 10° SE
METEOR-M 4.1 19:01:03 10° SSE 19:06:22 75° ENE 19:11:44 10° N
Cosmos 921 Rocket 4.1 19:03:31 10° N 19:07:19 26° ENE 19:11:02 10° ESE
SPOT 3 Rocket 3.5 19:02:12 10° SSE 19:07:20 67° ENE 19:12:32 10° N
BREEZE-M DEB (TANK) 1.3 19:05:12 10° WNW 19:07:32 62° SSW 19:09:31 10° SE
COSMOS 2428 3.8 19:08:09 10° N 19:12:44 24° NE 19:16:20 14° E
Cosmos 1461 3.4 19:09:16 10° SW 19:13:14 60° NW 19:17:24 10° NNE
SL-8 Rocket 4.1 19:07:34 10° S 19:13:45 81° W 19:20:01 10° N
BREEZE-M DEB (TANK) 1.4 19:11:28 10° SW 19:13:53 70° SSE 19:15:07 19° ENE
Cosmos 2058 3.1 19:11:17 10° N 19:15:23 50° ENE 19:19:26 10° SSE
Cosmos 2056 Rocket 3.6 19:10:33 10° NNW 19:15:54 82° WSW 19:21:08 10° SSE
Cosmos 2333 Rocket 3.9 19:12:36 10° N 19:15:56 15° NE 19:18:02 13° ENE
RESURS DK-1 2.9 19:15:45 10° N 19:19:38 38° ENE 19:23:04 12° SE
Cosmos 2360 Rocket 2.3 19:14:28 10° NNW 19:20:02 54° ENE 19:25:34 10° SE
COSMO-SKYMED 1 2.6 19:15:46 10° NNE 19:20:08 89° WNW 19:24:29 10° SSW
Cosmos 1626 2.0 19:16:52 10° N 19:20:36 79° E 19:24:20 10° S
Cosmos 1833 4.4 19:15:09 10° S 19:20:38 52° ESE 19:26:07 10° NE
Cosmos 2098 Rocket 4.3 19:18:40 10° SE 19:21:57 22° E 19:25:52 10° NNE
NOAA 12 4.1 19:17:29 10° SSE 19:22:44 71° ENE 19:28:03 10° N
Meteor 2-1 Rocket 4.3 19:18:48 10° S 19:24:25 58° E 19:30:12 10° NNE
Cosmos 2219 4.4 19:21:59 10° SE 19:25:59 20° E 19:27:40 17° ENE
Cosmos 2322 Rocket 2.9 19:20:39 10° NNW 19:26:10 58° WSW 19:31:38 10° S
SL-24 R/B - RUBIN 2 4.0 19:22:44 10° NNW 19:27:34 49° NE 19:30:52 17° ESE
EO 1 Del DPAF 4.2 19:24:54 10° N 19:28:38 51° WNW 19:32:22 10° SSW
Lacrosse 5 rocket 3.5 19:25:33 10° W 19:29:07 23° NNW 19:32:34 10° NNE
SL-8 R/B 4.0 19:27:00 10° SW 19:31:38 48° SE 19:34:26 22° E
SJ-6B 3.6 19:30:52 22° ESE 19:32:15 28° ENE 19:35:31 10° N
Cosmos 1452 Rocket 3.5 19:28:37 10° NNW 19:33:50 59° ENE 19:39:00 10° SSE
Cosmos 2218 Rocket 4.3 19:27:46 10° SSW 19:33:53 68° W 19:40:02 10° N
BREEZE-M DEB (TANK) 3.9 19:29:51 10° WNW 19:34:04 76° NNE 19:47:49 15° ESE
Aureole 1 Rocket 4.3 19:27:32 10° SSW 19:34:12 63° WNW 19:39:17 10° NNE
Cosmos 1821 Rocket 4.4 19:30:55 10° SSE 19:36:29 38° E 19:42:09 10° NNE
Cosmos 1805 Rocket 4.3 19:34:34 10° NNE 19:38:27 30° ENE 19:39:44 25° ESE
USA 267 3.6 19:37:01 17° ENE 19:41:51 43° SE 19:48:00 10° SSW
DELTA 2 R/B (1) 3.8 19:37:59 10° W 19:43:31 63° S 19:46:42 25° ESE
Atlas Centaur 2 3.7 19:39:57 10° SW 19:43:56 23° S 19:47:12 15° SE
Cosmos 1727 Rocket 4.2 19:38:24 10° N 19:44:46 76° W 19:51:04 10° S
Cosmos 2322 3.7 19:39:56 10° NNW 19:45:41 69° ENE 19:51:22 10° SSE
ALOS 2.5 19:44:06 10° S 19:48:45 71° WSW 19:53:26 10° NNW
Abrixas rocket 3.1 19:47:03 10° W 19:50:11 41° NNW 19:51:14 31° NNE
Gbstr 26 Del rocket 4.2 19:45:37 10° NW 19:50:25 42° NNE 19:53:03 27° ENE
GP-B 4.5 19:46:48 10° NNW 19:50:59 41° W 19:55:09 10° SSW
Cosmos 1703 3.9 19:47:15 10° NNW 19:51:08 56° W 19:54:57 10° S
FENGYUN 3A 4.0 19:51:00 10° S 19:56:20 68° WSW 20:01:45 10° NNW
CZ-4C R/B 2.9 19:53:41 10° S 19:57:35 29° ESE 19:57:35 29° ESE
Tiangong 1 3.8 19:59:14 10° SW 19:59:22 10° SSW 19:59:31 10° SSW
Cosmos 1400 Rocket 4.4 19:56:51 10° NNW 20:00:35 36° W 20:04:16 10° SSW
Cosmos 2123 Rocket 4.3 19:57:25 10° N 20:03:18 42° ENE 20:05:32 31° ESE
BREEZE-M DEB (TANK) 4.0 19:49:28 10° WNW 20:09:31 68° NNE 20:11:54 38° E
Cosmos 2219 Rocket 2.6 20:05:22 10° N 20:10:37 39° ENE 20:11:02 39° ENE
Thor Agena Rocket 3.6 20:06:54 10° N 20:12:02 76° WNW 20:17:04 10° SSW
Cosmos 1908 3.9 20:10:24 10° SSW 20:14:15 56° W 20:18:07 10° N
Cosmos 1048 Rocket 3.8 20:10:56 10° S 20:16:01 66° ESE 20:19:09 23° NNE
USA 234 3.9 20:15:23 31° ENE 20:17:32 40° NNE 20:23:32 10° NW
Iridium 4 Rocket 3.9 20:15:38 10° S 20:21:01 71° W 20:26:50 10° N
Cosmos 1420 Rocket 4.2 20:15:50 10° NNW 20:21:10 74° WSW 20:24:47 21° S
Cosmos 2333 4.1 20:15:27 10° NNW 20:21:10 71° ENE 20:22:46 48° SE
H-2A R/B 3.4 20:18:13 14° S 20:21:21 55° W 20:25:12 10° NNW
Cosmos 2237 4.3 20:15:39 10° NNW 20:21:23 76° WSW 20:25:03 23° SSE
Envisat 3.3 20:26:29 48° NE 20:26:29 48° NE 20:30:43 10° N
Resurs 01 Rocket 2.4 20:27:35 38° NNE 20:27:35 38° NNE 20:30:28 10° N
Cosmos 44 4.2 20:24:01 10° SSW 20:26:24 30° S 20:26:24 30° S
Centaur D AC-28 4.5 20:28:55 10° S 20:30:48 17° SSE 20:30:48 17° SSE
Cosmos 2221 3.7 20:31:01 10° SSW 20:35:07 43° WNW 20:39:17 10° N
Cosmos 2237 Rocket 3.2 20:33:36 10° N 20:37:30 32° NNE 20:37:30 32° NNE
Cosmos 44 Rocket 4.0 20:34:31 10° SSW 20:37:31 39° SSW 20:37:31 39° SSW
In-Cosmos 22 Rocket 4.2 20:35:01 10° N 20:40:21 66° NE 20:40:21 66° NE
SL-16 R/B 4.1 20:42:36 10° N 20:44:37 17° NNE 20:44:37 17° NNE
Cosmos 1269 Rocket 4.3 20:51:16 10° SSW 20:56:29 64° WNW 20:57:37 51° NNW
COSMOS 2428 3.2 20:51:48 10° NNW 20:57:22 58° WSW 20:58:24 50° SSW
Cosmos 2333 Rocket 2.5 20:55:22 10° NNW 21:00:04 60° N 21:00:04 60° N
Cosmos 2360 Rocket 4.4 20:59:20 10° NW 21:03:36 22° W 21:07:52 10° SSW
Cosmos 2219 3.6 21:03:53 10° SW 21:09:34 62° WNW 21:09:45 62° NW
Lacrosse 5 rocket 4.2 21:08:04 10° NNW 21:09:05 12° NNW 21:09:05 12° NNW
NOSS 0 Rocket 4.3 21:11:38 10° NNW 21:16:35 59° NNW 21:16:35 59° NNW
BREEZE-M DEB (TANK) 4.2 21:14:37 10° WNW 21:19:03 36° WNW 21:19:03 36° WNW
USA 267 3.5 21:24:25 59° N 21:24:59 61° NNW 21:31:24 10° WSW
CZ-3A R/B 3.9 21:08:54 10° NW 21:26:41 67° NNE 21:27:05 66° NE
Atlas Centaur 2 4.4 21:28:04 10° SW 21:29:50 16° SW 21:29:50 16° SW
CZ-4C R/B 4.2 21:41:14 10° WSW 21:42:52 20° WSW 21:42:52 20° WSW
Cosmos 2219 Rocket 4.0 21:49:33 10° NW 21:52:46 26° WNW 21:52:46 26° WNW
USA 234 4.3 22:02:44 41° NW 22:02:44 41° NW 22:06:47 10° NW
